Sault Ste Marie, MI

6:11 PM EST on December 14, 2017 (GMT -0500)
Sault Ste Marie Municipal / Sanderson Field

Weather History for KANJ - January, 2013

Change the Weather History Date:

Friday, January 25, 2013

  Actual Average Record
Temperature  
Mean Temperature 9 °F 15 °F  
Max Temperature 16 °F 23 °F 42 °F (2002)
Min Temperature 1 °F 7 °F -25 °F (1939)
Degree Days  
Heating Degree Days 56 50  
Month to date heating degree days 1149 1238  
Since 1 July heating degree days 4116 4497  
Moisture  
Dew Point 6 °F    
Average Humidity 80    
Maximum Humidity 87    
Minimum Humidity 73    
Precipitation  
Precipitation 0.07 in 0.06 in 1.11 in (1972)
Month to date precipitation 2.29 1.81  
Year to date precipitation 2.29 1.81  
Snow  
Snow 1.40 in 1.00 in 12.20 in (1972)
Month to date snowfall 27.8 25.8  
Since 1 July snowfall 79.8 76.0  
Snow Depth 14.00 in    
Sea Level Pressure  
Sea Level Pressure 30.11 in    
Wind  
Wind Speed 6 mph (East)    
Max Wind Speed 13 mph    
Max Gust Speed 19 mph    
Visibility 3 miles    
Events Snow    
T = Trace of Precipitation, MM = Missing Value Source: NWS Daily Summary

Daily Weather History Graph

Daily Weather History Graph

Search for Another Location

Airport or City:

Trip Planner

Search our weather history database for the weather conditions in past years. The results will help you decide how hot, cold, wet, or windy it might be!

Date:

Astronomy

Jan. 25, 2013 Rise Set
Actual Time 8:08 AM EST 5:31 PM EST
Civil Twilight 7:35 AM EST 6:04 PM EST
Nautical Twilight 6:59 AM EST 6:41 PM EST
Astronomical Twilight 6:23 AM EST 7:16 PM EST
Moon 4:28 PM EST (1/25) 6:48 AM EST (1/25)
Length of Visible Light 10h 28m
Length of Day
9h 23m
Waxing Gibbous, 98% of the Moon is Illuminated
Jan 25
Waxing Gibbous
Jan 26
Full
Feb 3
Last Quarter
Feb 10
New
Feb 17
First Quarter

Hourly Weather History & Observations

Time (EST) Temp. Windchill Dew Point Humidity Pressure Visibility Wind Dir Wind Speed Gust Speed Precip Events Conditions
12:55 AM 1.0 °F -6.7 °F -2.9 °F 83% 30.45 in 10.0 mi East 3.5 mph - N/A   Clear
1:55 AM 1.0 °F -8.7 °F -4.0 °F 79% 30.41 in 10.0 mi East 4.6 mph - N/A   Mostly Cloudy
2:55 AM 1.9 °F -7.6 °F -2.9 °F 80% 30.38 in 10.0 mi East 4.6 mph - N/A   Overcast
3:55 AM 1.9 °F -5.6 °F -2.0 °F 83% 30.36 in 3.0 mi East 3.5 mph - 0.00 in Snow Light Snow
4:07 AM 1.9 °F -5.6 °F -2.0 °F 83% 30.30 in 2.0 mi East 3.5 mph - 0.00 in Snow Light Snow
4:16 AM 1.9 °F -5.6 °F -2.0 °F 83% 30.29 in 1.8 mi East 3.5 mph - 0.01 in Snow Light Snow
4:23 AM 1.9 °F -7.6 °F -2.0 °F 83% 30.28 in 3.0 mi East 4.6 mph - 0.01 in Snow Light Snow
4:38 AM 1.9 °F -7.6 °F -2.0 °F 83% 30.28 in 2.0 mi East 4.6 mph - 0.01 in Snow Light Snow
4:51 AM 3.2 °F -7.8 °F -2.2 °F 78% 30.27 in 6.0 mi East 5.8 mph - 0.01 in Snow Light Snow
4:55 AM 3.0 °F -8.0 °F -2.0 °F 80% 30.32 in 9.0 mi East 5.8 mph - 0.01 in   Overcast
5:18 AM 3.0 °F -10.5 °F -2.0 °F 80% 30.25 in 2.5 mi East 8.1 mph - 0.00 in Snow Light Snow
5:55 AM 3.9 °F -5.3 °F -0.9 °F 80% 30.28 in 2.5 mi East 4.6 mph - 0.01 in Snow Light Snow
6:27 AM 3.9 °F -5.3 °F -0.9 °F 80% 30.21 in 3.0 mi East 4.6 mph - 0.00 in Snow Light Snow
6:55 AM 3.9 °F -5.3 °F -0.0 °F 84% 30.26 in 3.0 mi East 4.6 mph - 0.01 in Snow Light Snow
7:42 AM 5.0 °F -4.1 °F -0.0 °F 80% 30.18 in 2.5 mi East 4.6 mph - 0.00 in Snow Light Snow
7:55 AM 5.0 °F -6.9 °F -0.0 °F 80% 30.23 in 3.0 mi East 6.9 mph - 0.00 in Snow Light Snow
8:24 AM 5.0 °F -4.1 °F 1.0 °F 84% 30.15 in 2.5 mi East 4.6 mph - 0.01 in Snow Light Snow
8:33 AM 5.0 °F -2.1 °F 1.0 °F 84% 30.15 in 3.0 mi East 3.5 mph - 0.01 in Snow Light Snow
8:43 AM 6.1 °F -0.9 °F 1.0 °F 80% 30.15 in 2.0 mi East 3.5 mph - 0.01 in Snow Light Snow
8:55 AM 6.1 °F -4.3 °F 1.9 °F 83% 30.19 in 1.8 mi East 5.8 mph - 0.01 in Snow Light Snow
9:55 AM 8.1 °F -2.0 °F 3.0 °F 80% 30.18 in 1.2 mi East 5.8 mph - 0.00 in Snow Light Snow
10:12 AM 8.1 °F -4.3 °F 3.0 °F 80% 30.12 in 0.8 mi East 8.1 mph - 0.01 in Snow Light Snow
10:26 AM 8.1 °F -5.3 °F 3.0 °F 80% 30.12 in 1.0 mi East 9.2 mph - 0.01 in Snow Light Snow
10:55 AM 9.0 °F -2.2 °F 3.9 °F 80% 30.15 in 1.0 mi East 6.9 mph - 0.02 in Snow Light Snow
11:25 AM 10.9 °F -1.8 °F 5.0 °F 77% 30.08 in 1.2 mi East 9.2 mph - 0.00 in Snow Light Snow
11:44 AM 10.9 °F -1.8 °F 5.0 °F 77% 30.08 in 2.0 mi East 9.2 mph - 0.00 in Snow Light Snow
11:55 AM 12.0 °F -2.0 °F 6.1 °F 77% 30.12 in 1.8 mi East 11.5 mph - 0.00 in Snow Light Snow
12:03 PM 12.9 °F 1.6 °F 7.0 °F 77% 30.07 in 1.8 mi ESE 8.1 mph - 0.00 in Snow Light Snow
12:51 PM 14.0 °F 3.9 °F 8.6 °F 79% 30.02 in 2.0 mi East 6.9 mph - 0.01 in Snow Light Snow
12:55 PM 15.1 °F 5.2 °F 9.0 °F 77% 30.07 in 2.0 mi East 6.9 mph - 0.01 in Snow Light Snow
1:23 PM 15.1 °F 3.3 °F 9.0 °F 77% 30.01 in 1.8 mi East 9.2 mph - 0.01 in Snow Light Snow
1:34 PM 16.0 °F 6.3 °F 10.0 °F 77% 29.99 in 2.5 mi East 6.9 mph - 0.01 in Snow Light Snow
1:55 PM 16.0 °F 6.3 °F 10.0 °F 77% 30.03 in 2.0 mi East 6.9 mph - 0.01 in Snow Light Snow
2:06 PM 16.0 °F 2.9 °F 10.0 °F 77% 29.98 in 1.5 mi ESE 11.5 mph - 0.00 in Snow Light Snow
2:14 PM 16.0 °F 3.6 °F 10.0 °F 77% 29.98 in 1.5 mi East 10.4 mph - 0.00 in Snow Light Snow
2:23 PM 16.0 °F 2.3 °F 10.0 °F 77% 29.97 in 3.0 mi ESE 12.7 mph 18.4 mph 0.00 in Snow Light Snow
2:34 PM 16.0 °F 4.4 °F 10.0 °F 77% 29.97 in 1.8 mi ESE 9.2 mph 16.1 mph 0.00 in Snow Light Snow
2:55 PM 16.0 °F 4.4 °F 10.0 °F 77% 30.01 in 2.0 mi ESE 9.2 mph - 0.01 in Snow Light Snow
3:04 PM 16.0 °F 3.6 °F 10.0 °F 77% 29.96 in 3.0 mi ESE 10.4 mph - 0.00 in Snow Light Snow
3:42 PM 16.0 °F 3.6 °F 10.0 °F 77% 29.97 in 2.5 mi ESE 10.4 mph - 0.00 in Snow Light Snow
3:55 PM 16.0 °F 5.3 °F 10.0 °F 77% 30.01 in 3.0 mi ESE 8.1 mph - 0.00 in Snow Light Snow
4:06 PM 16.0 °F 6.3 °F 10.9 °F 81% 29.96 in 1.8 mi East 6.9 mph - 0.00 in Snow Light Snow
4:26 PM 16.0 °F 7.4 °F 10.9 °F 81% 29.96 in 2.0 mi Variable 5.8 mph - 0.00 in Snow Light Snow
4:39 PM 16.0 °F 7.4 °F 10.9 °F 81% 29.97 in 1.8 mi East 5.8 mph - 0.00 in Snow Light Snow
4:53 PM 15.8 °F 5.1 °F 10.4 °F 79% 29.97 in 2.5 mi East 8.1 mph - 0.00 in Snow Light Snow
4:55 PM 16.0 °F 7.4 °F 10.9 °F 81% 30.01 in 3.0 mi East 5.8 mph - 0.00 in Snow Light Snow
5:31 PM 16.0 °F 6.3 °F 10.9 °F 81% 29.97 in 1.8 mi ESE 6.9 mph - 0.00 in Snow Light Snow
5:52 PM 15.8 °F 5.1 °F 10.4 °F 79% 29.98 in 2.5 mi ESE 8.1 mph - 0.01 in Snow Light Snow
5:55 PM 16.0 °F 7.4 °F 10.9 °F 81% 30.03 in 3.0 mi ESE 5.8 mph - 0.01 in Snow Light Snow
6:27 PM 15.1 °F 7.7 °F 10.9 °F 84% 29.98 in 2.5 mi East 4.6 mph - 0.00 in Snow Light Snow
6:50 PM 15.8 °F 8.6 °F 10.4 °F 79% 29.99 in 4.0 mi East 4.6 mph - 0.00 in Snow Light Snow
6:55 PM 15.1 °F 6.4 °F 10.9 °F 84% 30.03 in 5.0 mi East 5.8 mph - 0.00 in Snow Light Snow
7:55 PM 15.1 °F 6.4 °F 10.0 °F 80% 30.03 in 8.0 mi East 5.8 mph - 0.00 in   Overcast
8:55 PM 15.1 °F 5.2 °F 10.0 °F 80% 30.03 in 3.0 mi East 6.9 mph - 0.00 in Snow Light Snow
9:30 PM 14.0 °F 8.2 °F 10.0 °F 84% 29.99 in 5.0 mi East 3.5 mph - 0.00 in Snow Light Snow
9:55 PM 14.0 °F 8.2 °F 10.0 °F 84% 30.04 in 8.0 mi East 3.5 mph - 0.00 in   Overcast
10:55 PM 14.0 °F 5.1 °F 9.0 °F 80% 30.05 in 7.0 mi ESE 5.8 mph - 0.00 in Snow Light Snow
11:55 PM 14.0 °F 5.1 °F 9.0 °F 80% 30.06 in 6.0 mi East 5.8 mph - 0.00 in Snow Light Snow